This demonstration page uses our WeatherBlox Daily Observations layout. Learn more.

Left ArrowRight Arrow

39.08367, -84.50855

Hourly Observations for April 22, 2019

Temp ( °F °C ) Dew Point ( °F °C ) Humidity (%) Winds ( mph kmh ) Pressure ( in mb ) Visibility ( mi km ) Precip ( " mm )
12:53 am 00:53 Clear 48 8.9 46 7.8 93 93 Calm 30.19 1022 10 16 0.00 0.00
1:53 am 01:53 Clear 47 8.3 45 7.2 93 93 Calm 30.19 1023 10 16 0.00 0.00
2:18 am 02:18 Clear with Mist and Fog 46 7.8 44 6.7 93 93 Calm 30.20 1023 3 4 0.00 0.00
2:25 am 02:25 Clear with Mist and Fog 46 7.8 45 7.2 96 96 Calm 30.20 1023 5 8 0.00 0.00
2:45 am 02:45 Clear with Mist and Fog 45 7.2 44 6.7 97 97 Calm 30.20 1023 2 3 0.00 0.00
2:53 am 02:53 Clear with Mist and Fog 45 7.2 44 6.7 97 97 Calm 30.19 1022 1 1 0.00 0.00
3:00 am 03:00 Clear with Mist and Fog 46 7.8 45 7.2 96 96 Calm 30.20 1023 2 3 0.00 0.00
3:03 am 03:03 Clear with Mist and Fog 46 7.8 44 6.7 93 93 Calm 30.20 1023 4 6 0.00 0.00
3:15 am 03:15 Clear with Mist and Fog 44 6.7 43 6.1 96 96 Calm 30.20 1023 2 2 0.00 0.00
3:31 am 03:31 Clear with Mist and Fog 45 7.2 44 6.7 97 97 Calm 30.20 1023 3 5 0.00 0.00
3:43 am 03:43 Clear with Mist and Fog 45 7.2 44 6.7 97 97 Calm 30.20 1023 2 2 0.00 0.00
3:53 am 03:53 Clear with Mist and Fog 44 6.7 43 6.1 96 96 Calm 30.19 1022 2 3 0.00 0.00
4:00 am 04:00 Clear 44 6.7 43 6.1 96 96 Calm 30.20 1023 10 16 0.00 0.00
4:13 am 04:13 Clear with Mist and Fog 45 7.2 43 6.1 93 93 Calm 30.20 1023 2 3 0.00 0.00
4:28 am 04:28 Clear with Mist and Fog 44 6.7 43 6.1 96 96 Calm 30.21 1023 1 1 0.00 0.00
4:35 am 04:35 Clear with Mist and Fog 44 6.7 43 6.1 96 96 Calm 30.21 1023 2 3 0.00 0.00
4:42 am 04:42 Clear 44 6.7 42 5.6 93 93 Calm 30.21 1023 9 14 0.00 0.00
4:45 am 04:45 Mostly Clear with Mist and Fog 44 6.7 42 5.6 93 93 Calm 30.21 1023 2 3 0.00 0.00
4:48 am 04:48 Mostly Cloudy with Mist and Fog 45 7 43 6 93 93 Calm 30.21 1023 1 1 0.00 0.00
4:53 am 04:53 Mostly Cloudy with Fog 44 6.7 42 5.6 93 93 Calm 30.20 1023 1 1 0.00 0.00
5:08 am 05:08 Mostly Clear with Mist and Fog 44 6.7 43 6.1 96 96 Calm 30.21 1023 1 2 0.00 0.00
5:11 am 05:11 Mostly Clear with Mist and Fog 44 6.7 43 6.1 96 96 Calm 30.21 1023 3 5 0.00 0.00
5:17 am 05:17 Partly Cloudy with Mist and Fog 43 6.1 42 5.6 97 97 Calm 30.23 1024 2 2 0.00 0.00
5:22 am 05:22 Mostly Cloudy with Mist and Fog 43 6.1 42 5.6 97 97 Calm 30.23 1024 1 1 0.00 0.00
5:44 am 05:44 Mostly Clear with Mist and Fog 42 5.6 41 5 96 96 Calm 30.22 1023 1 2 0.00 0.00
5:49 am 05:49 Mostly Clear with Mist and Fog 43 6 43 6 100 100 Calm 30.22 1023 3 5 0.00 0.00
5:53 am 05:53 Mostly Clear 43 6.1 42 5.6 97 97 NNE 3 6 30.20 1023 7 11 0.00 0.00
6:23 am 06:23 Clear with Mist and Fog 43 6.1 42 5.6 97 97 Calm 30.24 1024 2 2 0.00 0.00
6:33 am 06:33 Clear with Mist and Fog 43 6.1 42 5.6 97 97 E 3 6 30.23 1024 3 5 0.00 0.00
6:53 am 06:53 Sunny 43 6.1 42 5.6 97 97 Calm 30.22 1023 8 13 0.00 0.00
7:10 am 07:10 Sunny with Fog 44 6.7 43 6.1 96 96 Calm 30.24 1024 1 1 0.00 0.00
7:20 am 07:20 Mostly Cloudy with Fog 44 6.7 43 6.1 96 96 Calm 30.24 1024 0 0 0.00 0.00
7:53 am 07:53 Mostly Cloudy with Fog 45 7.2 44 6.7 97 97 Calm 30.24 1024 0 0 0.00 0.00
8:17 am 08:17 Mostly Cloudy with Mist and Fog 46 7.8 45 7.2 96 96 Calm 30.25 1024 1 2 0.00 0.00
8:25 am 08:25 Sunny with Patchy Fog 47 8.3 46 7.8 97 97 Calm 30.26 1025 10 16 0.00 0.00
8:53 am 08:53 Sunny 49 9.4 48 8.9 97 97 SW 3 6 30.26 1025 10 16 0.00 0.00
9:53 am 09:53 Sunny 57 13.9 48 8.9 72 72 S 5 7 30.25 1025 10 16 0.00 0.00
10:53 am 10:53 Sunny 63 17.2 48 8.9 58 58 VRB 5 7 30.24 1024 10 16 0.00 0.00
11:53 am 11:53 Sunny 66 18.9 48 8.9 52 52 VRB 3 6 30.23 1024 10 16 0.00 0.00
12:53 pm 12:53 Sunny 69 20.6 47 8.3 45 45 SSW 6 9 30.20 1023 10 16 0.00 0.00
1:53 pm 13:53 Sunny 72 22.2 48 8.9 43 43 VRB 3 6 30.18 1022 10 16 0.00 0.00
2:53 pm 14:53 Sunny 73 22.8 49 9.4 43 43 S 8 13 30.16 1021 10 16 0.00 0.00
3:53 pm 15:53 Sunny 73 22.8 45 7.2 37 37 VRB 3 6 30.14 1021 10 16 0.00 0.00
4:53 pm 16:53 Sunny 74 23.3 50 10 43 43 S 6 9 30.12 1020 10 16 0.00 0.00
5:53 pm 17:53 Sunny 72 22.2 45 7.2 38 38 SE 7 11 30.10 1019 10 16 0.00 0.00
6:53 pm 18:53 Sunny 72 22.2 48 8.9 43 43 S 8 13 30.10 1019 10 16 0.00 0.00
7:53 pm 19:53 Sunny 69 20.6 47 8.3 45 45 SSE 6 9 30.08 1019 10 16 0.00 0.00
8:53 pm 20:53 Clear 65 18.3 49 9.4 56 56 S 5 7 30.07 1018 10 16 0.00 0.00
9:53 pm 21:53 Clear 59 15 52 11.1 78 78 Calm 30.07 1018 10 16 0.00 0.00
10:53 pm 22:53 Clear 56 13.3 50 10 81 81 Calm 30.06 1018 10 16 0.00 0.00
11:53 pm 23:53 Clear 54 12.2 49 9.4 83 83 Calm 30.06 1018 10 16 0.00 0.00

Powered by AerisWeather